Race Coverage Navigation

TS # 40 / Greensburg, IN  2019

 


TS STATS
TS Distance 60.8 
Total Distance 2368.1 
Miles To Go 672.26 
TS Climbing 2349 
Total Climbing
TS  Elevation
TS  Net Elevation 3743 
Map Filename Open Map 
Directions Filename  
Latitude 39.34 
Longitude -85.48 
Google Map  TimeStation Map 


TS Arrival Data
Arr Ord  #/Name Arrival DT TS Dst Avg This TS Avg Overall
 1 377 - Christoph Strasser  06/17/2019 20:35 60.8  12  16.01 
 2 279 - Marko Baloh  06/18/2019 19:01 60.8  11.22  13.9 
 3 609 - Jakob Olsen  06/18/2019 23:26 60.8  12.62  13.53 
 4 617 - SOLO.kiwi (Craig Harper)  06/19/2019 14:35 60.8  13.41  12.44 
 5 329 - Peter Oyler  06/19/2019 16:23 60.8  13.92  12.35 
 6 367 - Daniela Genovesi  06/19/2019 17:24 60.8  13.36  12.25 
 7 416 - Leah Goldstein  06/19/2019 19:19 60.8  11.88  12.13 
 8 623 - Ultra Paka Racing Team (Daniel Polman)  06/19/2019 20:56 60.8  12.49  12.03 
 9 T411 - team alpha - tischlerei groemmer  06/19/2019 23:42 60.8  22.66  22.69 
 10 622 - Thomas Odom-Team Kyle Pease Foundation  06/20/2019 0:09 60.8  13.22  11.84 
 11 T800 - Backstedt Racing Project 14  06/20/2019 0:16 60.8  22.66  22.6 
 12 612 - Markus K. Brandl  06/20/2019 4:03 60.8  8.46  11.62 
 13 611 - Marcelo Soares " MIXIRICA "  06/20/2019 5:52 60.8  11.29  11.52 
 14 T404 - Gentlemen of speed  06/20/2019 6:20 60.8  21.71  21.32 
 15 615 - Philipp Amhof  06/20/2019 6:48 60.8  8.83  11.47 
 16 T401 - Data Techniques powered by Networks Centre  06/20/2019 7:19 60.8  19.72  21.12 
 17 603 - Alan Bradley  06/20/2019 7:59 60.8  9.24  11.41 
 18 510 - John C. Tarlton  06/20/2019 11:05 60.8  12.94  11.24 
 19 T805 - Team Oceanside  06/20/2019 11:43 60.8  19.4  20.39 
 20 T807 - Team ZOE International  06/20/2019 12:25 60.8  20.61  20.27 
 21 T407 - Julian Becker   06/20/2019 12:33 60.8  21.09  20.19 
 22 T201 - EAT WELL  06/20/2019 13:23 60.8  20.38  20.01 
 23 442 - Joe Barr  06/20/2019 13:28 60.8  17.97  11.12 
 24 411 - Geoff Brunner  06/20/2019 14:03 60.8  14.03  11.09 
 25 T802 - Scorchers  06/20/2019 14:10 60.8  21.98  19.96 
 26 559 - Team Martin RAAM 2019 (Martin Bergmeister)  06/20/2019 14:58 60.8  12.67  11.04 
 27 529 - Isa Pulver  06/20/2019 15:25 60.8  14.77  11 
 28 T416 - Team Rotary Raams Polio  06/20/2019 16:31 60.8  19.1  19.56 
 29 T804 - Team FSHD Skyland Trail  06/20/2019 16:35 60.8  29.9  19.57 
 30 T408 - Radeln-fuer-Kinder (Cycling-for-Kids)  06/20/2019 17:39 60.8  20.27  19.36 
 31 568 - Alexandra Meixner  06/20/2019 19:30 60.8  8.54  10.79 
 32 T400 - Cantastic4  06/20/2019 19:35 60.8  18.61  19.03 
 33 610 - Kabir Rachure  06/20/2019 19:49 60.8  12.45  10.79 
 34 T808 - Antonia's Friends 2019  06/20/2019 20:19 60.8  20.49  18.99 
 35 604 - Chieko Ozawa  06/20/2019 20:28 60.8  11.88  10.74 
 36 618 - GREGORY ROBINSON  06/20/2019 20:52 60.8  12.41  10.73 
 37 T406 - Operation Walk Midwest  06/20/2019 21:37 60.8  19.2  18.74 
 38 T418 - The Opportunists  06/20/2019 23:22 60.8  19.2  18.52 
 39 399 - Valerio Zamboni  06/21/2019 3:08 60.8  11.09  10.45 
 40 T410 - Soap-Aid  06/21/2019 6:11 60.8  12.49  17.56 
 41 T803 - Team EndoPark  06/21/2019 8:05 60.8  17.05  17.34 
 42 424 - Team i RON man Veterans supporting Veterans  06/21/2019 8:58 60.8  9.14  10.19 
 43 T414 - Brazil Nuts  06/21/2019 9:03 60.8  15.2  17.2 
 44 T412 - Team Aspect  06/21/2019 9:25 60.8  19.2  17.15 
 45 T202 - Integra Medical - BAA Racing  06/21/2019 9:25 60.8  19.2  17.11 
 46 T405 - High Rollers  06/21/2019 9:31 60.8  15.14  17.13 
 47 T415 - TEAM FIRE VELO 935  06/21/2019 10:47 60.8  16.29  16.99 
 48 161 - Seana Hogan  06/21/2019 13:03 60.8  10.64  10 
 49 T206 - Project Linear Acceleration  06/21/2019 13:37 60.8  16.51  16.62 
 50 T413 - TEAM BRASIL - SKIPPER  06/21/2019 13:47 60.8  17.88  16.63 
 51 T204 - Lucan CRC  06/21/2019 14:01 60.8  18.24  16.57 
 52 T402 - EA/WFP RAAM Team  06/21/2019 14:49 60.8  16.43  16.49 
 53 T806 - Team SuperMarrow  06/21/2019 17:39 60.8  13.22  16.21 
 54 T801 - Mind Over Matter  06/21/2019 17:55 60.8  15.86  16.17 
 55 T200 - AIR RELAX GoPro TEAM BRASIL  06/21/2019 18:05 60.8  17.71  16.1 
 56 T417 - Team4RAAM 2019 powered by TGW Living Logistics  06/21/2019 20:16 60.8  14.03  15.91 
 57 T403 - EKJ Denmark  06/21/2019 21:38 60.8  16.81  15.74 
 58 T409 - Serpentine Golden Girls  06/22/2019 8:34 60.8  13.98  14.69 
 59 T207 - Team Life Time  06/22/2019 15:06 60.8  16  14.1 
 60 T210 - Bike Wine Team  06/22/2019 18:38 60.8  14.42  13.81